St.-Anicet, Quebec

12:14 PM EDT on July 23, 2017 (GMT -0400)
St.-Anicet

Weather History for CWBZ - October, 2012

Change the Weather History Date:

Thursday, October 4, 2012

  Actual Average Record
Temperature  
Mean Temperature 64 °F -  
Max Temperature 70 °F - - ()
Min Temperature 58 °F - - ()
Degree Days  
Heating Degree Days 1    
Growing Degree Days 14 (Base 50)    
Moisture  
Dew Point 59 °F    
Average Humidity 89    
Maximum Humidity 100    
Minimum Humidity 66    
Precipitation  
Precipitation 0.00 in - - ()
Sea Level Pressure  
Sea Level Pressure 30.05 in    
Wind  
Wind Speed 3 mph ()    
Max Wind Speed 9 mph    
Max Gust Speed -    
T = Trace of Precipitation, MM = Missing Value Source: Averaged Metar Reports

Daily Weather History Graph

Daily Weather History Graph

Search for Another Location

Airport or City:

Trip Planner

Search our weather history database for the weather conditions in past years. The results will help you decide how hot, cold, wet, or windy it might be!

Date:

Astronomy

Oct. 04, 2012 Rise Set
Actual Time 6:59 AM EDT 6:31 PM EDT
Civil Twilight 6:30 AM EDT 7:00 PM EDT
Nautical Twilight 5:56 AM EDT 7:34 PM EDT
Astronomical Twilight 5:21 AM EDT 8:08 PM EDT
Moon 8:52 PM EDT (10/4) 11:26 AM EDT (10/4)
Length of Visible Light 12h 30m
Length of Day
11h 31m
Waning Gibbous, 82% of the Moon is Illuminated
Oct 4
Waning Gibbous
Oct 8
Last Quarter
Oct 15
New
Oct 21
First Quarter
Oct 29
Full

Hourly Weather History & Observations

Time (EDT) Temp. Dew Point Humidity Pressure Visibility Wind Dir Wind Speed Gust Speed Precip Events Conditions
12:00 AM 63.9 °F 61.9 °F 93% 30.10 in - East 2.3 mph - N/A   Unknown
1:00 AM 63.5 °F 61.9 °F 94% 30.10 in - ENE 1.2 mph - N/A   Unknown
2:00 AM 63 °F 62 °F 93% 30.10 in - NE 1.2 mph - -  
2:00 AM 63.0 °F 61.5 °F 95% 30.10 in - NE 1.2 mph - N/A   Unknown
3:00 AM 62.8 °F 61.9 °F 97% 30.10 in - North 2.3 mph - N/A   Unknown
4:00 AM 62.4 °F 61.7 °F 97% 30.10 in - North 3.5 mph - N/A   Unknown
5:00 AM 61.7 °F 61.2 °F 98% 30.10 in - NE 3.5 mph - N/A   Unknown
6:00 AM 60.8 °F 60.4 °F 99% 30.10 in - NNE 2.3 mph - N/A   Unknown
7:00 AM 59.4 °F 59.0 °F 99% 30.11 in - NE 3.5 mph - N/A   Unknown
8:00 AM 58 °F 58 °F 100% 30.11 in - NE 2.3 mph - -  
8:00 AM 58.3 °F 57.9 °F 99% 30.11 in - NE 2.3 mph - N/A   Unknown
9:00 AM 58.5 °F 58.3 °F 99% 30.09 in - NE 3.5 mph - N/A   Unknown
10:00 AM 59.0 °F 58.8 °F 99% 30.09 in - NE 3.5 mph - N/A   Unknown
11:00 AM 59.5 °F 59.4 °F 99% 30.09 in - NE 2.3 mph - N/A   Unknown
12:00 PM 59.7 °F 59.4 °F 99% 30.08 in - NNE 2.3 mph - N/A   Unknown
1:00 PM 61.5 °F 61.0 °F 98% 30.06 in - East 2.3 mph - N/A   Unknown
2:00 PM 65 °F 63 °F 89% 30.04 in - East 1.2 mph - -  
2:00 PM 64.6 °F 62.6 °F 93% 30.04 in - East 1.2 mph - N/A   Unknown
3:00 PM 68.2 °F 61.5 °F 79% 30.03 in - South 2.3 mph - N/A   Unknown
4:00 PM 69.1 °F 59.4 °F 71% 30.01 in - WSW 8.1 mph - N/A   Unknown
5:00 PM 70.2 °F 58.5 °F 66% 30.00 in - SW 9.2 mph - N/A   Unknown
6:00 PM 68.2 °F 58.6 °F 71% 29.98 in - SW 4.6 mph - N/A   Unknown
7:00 PM 64.6 °F 57.6 °F 78% 29.97 in - SSW 4.6 mph - N/A   Unknown
8:00 PM 62 °F 57 °F 77% 29.98 in - SSW 3.5 mph - -  
8:00 PM 62.2 °F 56.7 °F 82% 29.98 in - SSW 3.5 mph - N/A   Unknown
9:00 PM 62.2 °F 55.0 °F 77% 29.97 in - SW 5.8 mph - N/A   Unknown
10:00 PM 62.6 °F 54.1 °F 74% 29.97 in - SW 4.6 mph - N/A   Unknown
11:00 PM 63.7 °F 54.0 °F 71% 29.95 in - SW 4.6 mph - N/A   Unknown